Regional Weather Roundup
Issued by NWS

Home | Current Version | Previous Version | Graphics & Text | Print | Product List | Glossary Off
Versions: 1 2 3 4 5 6 7 8 9 10 11 12 13 14 15 16 17 18 19 20 21 22 23 24 25 26 27 28 29 30 31 32 33 34 35 36 37 38 39 40 41 42 43 44 45 46 47 48 49 50

000
ASUS43 KTOP 290659
RWRKS

WEATHER ROUNDUP FOR KANSAS
NATIONAL WEATHER SERVICE GOODLAND KS
200 AM CDT MON AUG 29 2016

NOTE:  "FAIR" INDICATES FEW OR NO CLOUDS BELOW 12,000 FEET WITH NO
SIGNIFICANT WEATHER AND/OR OBSTRUCTIONS TO VISIBILITY.

KSZ001>006-013>018-027>032-041>047-290800-
NORTHWEST KANSAS

CITY           SKY/WX    TMP DP  RH WIND       PRES   REMARKS
GOODLAND       CLEAR     64  60  87 S10       30.18S
HAYS           CLOUDY    68  59  73 SE3       30.14F
HILL CITY      CLOUDY    69  64  84 CALM      30.15S
RUSSELL        PTCLDY    68  66  93 S3        30.13S
$$

KSZ061>065-074>080-084>089-290800-
SOUTHWEST KANSAS

CITY           SKY/WX    TMP DP  RH WIND       PRES   REMARKS
DODGE CITY     PTCLDY    66  65  96 S6        30.15S
ELKHART          N/A     63  59  87 SE7         N/A
GARDEN CITY    MOCLDY    62  61  96 SW3       30.15R FOG
GREAT BEND     PTCLDY    68  61  77 SE3       30.14S
LIBERAL        CLOUDY    66  61  82 S5        30.18R
$$

KSZ066>073-081>083-090>101-290800-
SOUTHEAST KANSAS

CITY           SKY/WX    TMP DP  RH WIND       PRES   REMARKS
CHANUTE        CLEAR     73  70  90 E6        30.11F
COFFEYVILLE    CLEAR     71  68  90 NE3       30.10S
HUTCHINSON     CLOUDY    70  68  93 CALM      30.12S
MEDICINE LODGE   N/A     69  67  93 CALM      30.10F
NEWTON         CLOUDY    72  70  93 E6        30.11F
PARSONS        CLEAR     71  69  93 CALM      30.11F
WICHITA INTL   MOCLDY    74  70  87 W8        30.11R
WICHITA JABRA  MOCLDY    73  71  93 SE5       30.10S
WINFIELD       PTCLDY    74  70  87 SE5       30.10F
$$

KSZ007>012-019>026-033>040-048>060-102>105-290800-
NORTHEAST KANSAS

CITY           SKY/WX    TMP DP  RH WIND       PRES   REMARKS
CONCORDIA      CLOUDY    69  64  84 CALM      30.15R
EMPORIA        CLEAR     72  69  90 SE8       30.11F
LAWRENCE       CLEAR     70  70 100 CALM      30.10F
MANHATTAN      PTCLDY    72  70  93 CALM      30.11F
OLATHE IND     CLEAR     73  70  90 E7        30.12F
OLATHE EXE     CLEAR     72  69  90 E6        30.12F
SALINA         PTCLDY    74  70  87 CALM      30.12F
TOPEKA BILLARD PTCLDY    73  69  87 CALM      30.10F
TOPEKA FORBES  CLEAR     74  70  87 SE5       30.10F
$$




USA.gov is the U.S. government's official web portal to all federal, state and local government web resources and services.